Weather History for KSDY - April, 2014

Change the Weather History Date:

Friday, April 18, 2014

  Actual Average (KISN) Record (KISN)
Temperature  
Mean Temperature 48 °F 45 °F  
Max Temperature 62 °F 59 °F 83 °F (1980)
Min Temperature 35 °F 31 °F 10 °F (1953)
Degree Days  
Heating Degree Days 16 20  
Month to date heating degree days 434  
Since 1 July heating degree days 8309  
Cooling Degree Days 0 0  
Month to date cooling degree days 0  
Year to date cooling degree days 0  
Moisture  
Dew Point 33 °F    
Average Humidity 64    
Maximum Humidity 100    
Minimum Humidity 39    
Precipitation  
Precipitation 0.10 in 0.03 in 2.20 in (2006)
Month to date precipitation 0.53  
Year to date precipitation 2.22  
Snow  
Snow 0.00 in 0.10 in 10.00 in (1896)
Snow Depth -    
Sea Level Pressure  
Sea Level Pressure 29.78 in    
Wind  
Wind Speed 12 mph (SSE)    
Max Wind Speed 26 mph    
Max Gust Speed 38 mph    
Visibility 10 miles    
Events      
T = Trace of Precipitation, MM = Missing Value Source: NWS Daily Summary

Daily Weather History Graph

Daily Weather History Graph

Search for Another Location

Airport or City:

Trip Planner

Search our weather history database for the weather conditions in past years. The results will help you decide how hot, cold, wet, or windy it might be!

Date:

Astronomy

Apr. 18, 2014 Rise Set
Actual Time 6:02 AM MDT 7:50 PM MDT
Civil Twilight 5:29 AM MDT 8:23 PM MDT
Nautical Twilight 4:49 AM MDT 9:04 PM MDT
Astronomical Twilight 4:05 AM MDT 9:48 PM MDT
Moon 11:48 PM MDT (4/18) 8:16 AM MDT (4/18)
Length of Visible Light 14h 54m
Length of Day
13h 48m
Waning Gibbous, 86% of the Moon is Illuminated
Apr 18
Waning Gibbous
Apr 22
Last Quarter
Apr 29
New
May 6
First Quarter
May 14
Full

Hourly Weather History & Observations

Time (MDT) Temp. Windchill Dew Point Humidity Pressure Visibility Wind Dir Wind Speed Gust Speed Precip Events Conditions
12:15 AM 42.8 °F 38.0 °F 30.2 °F 61% 29.95 in 10.0 mi SE 8.1 mph - N/A   Overcast
12:35 AM 42.8 °F 38.6 °F 30.2 °F 61% 29.96 in 10.0 mi SE 6.9 mph - N/A   Overcast
12:55 AM 42.8 °F 39.3 °F 30.2 °F 61% 29.95 in 10.0 mi SE 5.8 mph - N/A   Overcast
1:15 AM 42.8 °F 37.5 °F 28.4 °F 57% 29.94 in 10.0 mi SE 9.2 mph - N/A   Overcast
1:35 AM 41.0 °F 34.7 °F 28.4 °F 61% 29.94 in 10.0 mi ESE 10.4 mph - N/A   Overcast
1:55 AM 41.0 °F 36.4 °F 28.4 °F 61% 29.93 in 10.0 mi SSE 6.9 mph - N/A   Overcast
2:15 AM 41.0 °F 34.3 °F 28.4 °F 61% 29.93 in 10.0 mi SE 11.5 mph - N/A   Overcast
2:35 AM 41.0 °F 34.3 °F 28.4 °F 61% 29.92 in 10.0 mi SE 11.5 mph - N/A   Overcast
2:55 AM 39.2 °F 31.6 °F 28.4 °F 65% 29.90 in 10.0 mi SE 12.7 mph - N/A   Overcast
3:15 AM 39.2 °F 32.5 °F 26.6 °F 61% 29.89 in 10.0 mi ESE 10.4 mph - N/A   Overcast
3:35 AM 39.2 °F 32.0 °F 26.6 °F 61% 29.89 in 10.0 mi SSE 11.5 mph - N/A   Overcast
3:55 AM 39.2 °F 31.6 °F 26.6 °F 61% 29.88 in 10.0 mi SE 12.7 mph - N/A   Overcast
4:15 AM 39.2 °F 32.0 °F 26.6 °F 61% 29.88 in 10.0 mi SE 11.5 mph - N/A   Overcast
4:35 AM 37.4 °F 31.4 °F 24.8 °F 60% 29.88 in 10.0 mi SE 8.1 mph - N/A   Overcast
4:55 AM 37.4 °F 31.4 °F 24.8 °F 60% 29.89 in 10.0 mi SE 8.1 mph - N/A   Overcast
5:15 AM 37.4 °F 30.3 °F 24.8 °F 60% 29.88 in 10.0 mi ESE 10.4 mph - N/A   Mostly Cloudy
5:35 AM 37.4 °F 30.3 °F 24.8 °F 60% 29.88 in 10.0 mi SE 10.4 mph - N/A   Scattered Clouds
5:55 AM 35.6 °F 27.5 °F 24.8 °F 65% 29.87 in 10.0 mi ESE 11.5 mph - N/A   Mostly Cloudy
6:15 AM 35.6 °F 29.9 °F 24.8 °F 65% 29.87 in 10.0 mi SE 6.9 mph - N/A   Partly Cloudy
6:35 AM 35.6 °F 28.0 °F 24.8 °F 65% 29.86 in 10.0 mi ESE 10.4 mph - N/A   Partly Cloudy
6:55 AM 35.6 °F 28.0 °F 24.8 °F 65% 29.86 in 10.0 mi SE 10.4 mph - N/A   Partly Cloudy
7:15 AM 35.6 °F 28.0 °F 24.8 °F 65% 29.85 in 10.0 mi SE 10.4 mph - N/A   Clear
7:35 AM 37.4 °F 30.8 °F 26.6 °F 65% 29.85 in 10.0 mi ESE 9.2 mph - N/A   Clear
7:55 AM 37.4 °F 30.3 °F 26.6 °F 65% 29.84 in 10.0 mi ESE 10.4 mph - N/A   Clear
8:15 AM 39.2 °F 30.8 °F 26.6 °F 61% 29.84 in 10.0 mi SE 15.0 mph - N/A   Clear
8:35 AM 41.0 °F 32.8 °F 26.6 °F 57% 29.84 in 10.0 mi SE 16.1 mph 21.9 mph N/A   Clear
8:55 AM 42.8 °F 35.1 °F 28.4 °F 57% 29.82 in 10.0 mi ESE 16.1 mph - N/A   Clear
9:15 AM 42.8 °F 34.8 °F 28.4 °F 57% 29.82 in 10.0 mi SE 17.3 mph - N/A   Partly Cloudy
9:35 AM 44.6 °F 37.4 °F 28.4 °F 53% 29.81 in 10.0 mi SSE 16.1 mph 20.7 mph N/A   Partly Cloudy
9:55 AM 44.6 °F 38.1 °F 28.4 °F 53% 29.81 in 10.0 mi SE 13.8 mph - N/A   Partly Cloudy
10:15 AM 44.6 °F 38.4 °F 28.4 °F 53% 29.80 in 10.0 mi ESE 12.7 mph - N/A   Partly Cloudy
10:55 AM 46.4 °F 41.1 °F 30.2 °F 53% 29.77 in 10.0 mi SE 11.5 mph - N/A   Mostly Cloudy
11:15 AM 48.2 °F - 30.2 °F 50% 29.76 in 10.0 mi ESE 16.1 mph - N/A   Scattered Clouds
11:35 AM 50.0 °F - 32.0 °F 50% 29.75 in 10.0 mi ESE 16.1 mph - N/A   Partly Cloudy
11:55 AM 51.8 °F - 33.8 °F 50% 29.73 in 10.0 mi SE 17.3 mph - N/A   Partly Cloudy
12:15 PM 55.4 °F - 33.8 °F 44% 29.71 in 10.0 mi ESE 16.1 mph 19.6 mph N/A   Clear
12:35 PM 55.4 °F - 33.8 °F 44% 29.69 in 10.0 mi SE 19.6 mph - N/A   Clear
12:55 PM 57.2 °F - 35.6 °F 44% 29.68 in 10.0 mi SE 18.4 mph - N/A   Scattered Clouds
1:15 PM 60.8 °F - 35.6 °F 39% 29.66 in 10.0 mi SE 20.7 mph 25.3 mph N/A   Mostly Cloudy
1:35 PM 60.8 °F - 35.6 °F 39% 29.65 in 10.0 mi SE 19.6 mph 26.5 mph N/A   Overcast
1:55 PM 60.8 °F - 35.6 °F 39% 29.64 in 10.0 mi SE 20.7 mph 24.2 mph N/A   Mostly Cloudy
2:15 PM 60.8 °F - 35.6 °F 39% 29.65 in 10.0 mi SSE 21.9 mph - N/A   Mostly Cloudy
2:35 PM 60.8 °F - 35.6 °F 39% 29.64 in 10.0 mi SE 24.2 mph 28.8 mph N/A   Overcast
2:55 PM 60.8 °F - 35.6 °F 39% 29.65 in 10.0 mi SSE 23.0 mph 26.5 mph N/A   Mostly Cloudy
3:15 PM 59.0 °F - 35.6 °F 42% 29.66 in 10.0 mi SSE 18.4 mph - N/A   Mostly Cloudy
3:35 PM 60.8 °F - 35.6 °F 39% 29.65 in 10.0 mi SSE 18.4 mph 23.0 mph N/A   Mostly Cloudy
3:55 PM 60.8 °F - 37.4 °F 42% 29.64 in 10.0 mi SE 16.1 mph - N/A   Scattered Clouds
4:15 PM 62.6 °F - 37.4 °F 39% 29.63 in 10.0 mi SE 16.1 mph 20.7 mph N/A   Scattered Clouds
4:35 PM 60.8 °F - 35.6 °F 39% 29.65 in 10.0 mi South 8.1 mph - N/A   Overcast
4:55 PM 55.4 °F - 41.0 °F 58% 29.68 in 10.0 mi West 19.6 mph 27.6 mph N/A   Overcast
5:15 PM 51.8 °F - 42.8 °F 71% 29.69 in 10.0 mi WNW 18.4 mph 26.5 mph N/A   Overcast
5:35 PM 48.2 °F - 44.6 °F 87% 29.69 in 10.0 mi WNW 20.7 mph 29.9 mph N/A   Overcast
5:55 PM 48.2 °F - 44.6 °F 87% 29.69 in 9.0 mi NW 18.4 mph 24.2 mph N/A   Overcast
6:15 PM 48.2 °F - 44.6 °F 87% 29.69 in 10.0 mi NW 11.5 mph - 0.05 in   Overcast
6:35 PM 48.2 °F - 44.6 °F 87% 29.66 in 9.0 mi East 9.2 mph - 0.09 in   Overcast
6:55 PM 50.0 °F - 46.4 °F 87% 29.63 in 10.0 mi East 11.5 mph - 0.09 in   Overcast
7:15 PM 48.2 °F - 46.4 °F 93% 29.65 in 10.0 mi WNW 3.5 mph - N/A   Scattered Clouds
7:35 PM 46.4 °F 42.9 °F 44.6 °F 93% 29.67 in 10.0 mi WNW 6.9 mph - N/A   Clear
7:55 PM 44.6 °F 43.1 °F 42.8 °F 93% 29.68 in 10.0 mi West 3.5 mph - N/A   Clear
8:15 PM 42.8 °F - 39.2 °F 87% 29.68 in 10.0 mi Calm Calm - N/A   Clear
8:35 PM 42.8 °F - 39.2 °F 87% 29.69 in 10.0 mi Calm Calm - N/A   Clear
8:55 PM 42.8 °F 41.1 °F 39.2 °F 87% 29.70 in 10.0 mi WSW 3.5 mph - N/A   Clear
9:15 PM 42.8 °F 38.6 °F 39.2 °F 87% 29.72 in 10.0 mi SW 6.9 mph - N/A   Clear
9:35 PM 44.6 °F 37.8 °F 44.6 °F 100% 29.75 in 10.0 mi West 15.0 mph 21.9 mph N/A   Mostly Cloudy
9:55 PM 44.6 °F 35.3 °F 39.2 °F 81% 29.76 in 10.0 mi West 26.5 mph 38.0 mph N/A   Overcast
10:15 PM 42.8 °F 32.9 °F 39.2 °F 87% 29.78 in 10.0 mi West 26.5 mph 36.8 mph N/A   Mostly Cloudy
10:35 PM 42.8 °F 35.4 °F 39.2 °F 87% 29.77 in 8.0 mi West 15.0 mph 26.5 mph 0.01 in   Overcast
10:55 PM 42.8 °F 39.3 °F 39.2 °F 87% 29.73 in 10.0 mi WNW 5.8 mph - 0.01 in   Overcast
11:15 PM 42.8 °F 40.1 °F 39.2 °F 87% 29.73 in 10.0 mi SW 4.6 mph - N/A   Overcast
11:35 PM 42.8 °F 38.0 °F 37.4 °F 81% 29.77 in 10.0 mi SW 8.1 mph - N/A   Mostly Cloudy
11:55 PM 41.0 °F 36.4 °F 37.4 °F 87% 29.78 in 10.0 mi SSW 6.9 mph - N/A   Partly Cloudy